Flag Weather past 2 weeks in Simi Valley, California, U.S.A.

Now
49 °F

Clear.


Feels Like: 49 °F
Forecast: 55 / 85 °F
Wind: No wind

Location: Van Nuys Airport

Current Time: Nov 27, 2014 at 7:01:05 AM

Latest Report: Nov 27, 2014 at 5:51 AM


Visibility: 10 mi

Pressure: 30.11 "Hg

Humidity: 48%

Dew point: 30 °F

Location of Simi ValleyLocation

Historic Weather in Simi Valley — Graph

°F

Simi Valley temperature yesterday

Maximum temperature yesterday: 87 °F (at 1:51 PM)
Minimum temperature yesterday: 48 °F (at 5:51 AM)
Average temperature yesterday: 65 °F

Past Weeks' High & Low Weather Summary

 TemperatureHumidityPressure
High87 °F (Nov 26, 1:51 PM)90% (Nov 13, 9:51 PM)30.39 "Hg (Nov 13, 9:51 PM)
Low47 °F (Nov 22, 5:51 AM)2% (Nov 16, 1:51 PM)29.90 "Hg (Nov 21, 1:51 PM)
Average63 °F40%30.08 "Hg
* Reported Nov 12 5:51 AM — Nov 27 5:51 AM, Simi Valley, Weather by CustomWeather, © 2014

Note: Actual official high and low records may vary slightly from our data, if they occured in-between our weather recording intervals... More about our weather records

Advertising

Simi Valley weather history for previous 24 hours

 ConditionsComfort  
Time TempWeatherWind HumidityBarometerVisibility
5:51 AM
Nov 27
49 °FClear.No wind48%30.11 "Hg10 mi
4:51 AM51 °FClear.No wind44%30.09 "Hg10 mi
3:51 AM51 °FClear.No wind42%30.09 "Hg10 mi
2:51 AM51 °FClear.No wind42%30.10 "Hg10 mi
1:51 AM56 °FClear.No wind34%30.11 "Hg10 mi
12:51 AM55 °FClear.No wind39%30.12 "Hg10 mi
11:51 PM
Nov 26
56 °FClear.No wind37%30.13 "Hg10 mi
10:51 PM59 °FClear.No wind31%30.14 "Hg10 mi
9:51 PM60 °FClear.No wind26%30.14 "Hg10 mi
8:51 PM64 °FClear.No wind24%30.14 "Hg10 mi
7:51 PM64 °FClear.No wind25%30.14 "Hg10 mi
6:51 PM72 °FClear.9 mph11%30.13 "Hg10 mi
5:51 PM73 °FClear.8 mph12%30.12 "Hg10 mi
4:51 PM78 °FClear.No wind12%30.12 "Hg10 mi
3:51 PM85 °FSunny.5 mph9%30.11 "Hg10 mi
2:51 PM87 °FSunny.3 mph6%30.12 "Hg10 mi
1:51 PM87 °FSunny.No wind6%30.13 "Hg10 mi
12:51 PM85 °FSunny.3 mph7%30.14 "Hg10 mi
11:51 AM83 °FSunny.3 mph10%30.17 "Hg10 mi
10:51 AM78 °FSunny.5 mph13%30.21 "Hg10 mi
9:51 AM72 °FSunny.No wind17%30.23 "Hg10 mi
8:51 AM64 °FSunny.No wind23%30.24 "Hg10 mi
7:51 AM55 °FSunny.No wind35%30.23 "Hg10 mi
Weather by CustomWeather, © 2014

See weather overviewHow to use our weather pages